Flag for Germany Weather past 2 weeks in Leer, Lower Saxony, Germany

Now
63 °F

Overcast.


Feels Like: 63 °F
Forecast: 63 / 77 °F
Wind: 1 mph from Northeast

Location: Emden-Koenigspolder

Current Time: Jul 25, 2014 at 5:52:30 AM

Latest Report: Jul 25, 2014 at 4:00 AM


Visibility: 6 mi

Pressure: 30.03 "Hg

Humidity: 93%

Dew point: 61 °F

Location of LeerLocation

Historic Weather in Leer — Graph

°F

Leer temperature yesterday

Maximum temperature yesterday: 79 °F (at 2:00 PM)
Minimum temperature yesterday: 57 °F (at 6:00 AM)
Average temperature yesterday: 69 °F

Past Weeks' High & Low Weather Summary

 TemperatureHumidityPressure
High91 °F (Jul 19, 5:00 PM)99% (Jul 18, 6:00 AM)30.18 "Hg (Jul 18, 6:00 AM)
Low53 °F (Jul 12, 6:00 AM)31% (Jul 19, 5:00 PM)29.67 "Hg (Jul 13, 7:00 PM)
Average69 °F75%29.96 "Hg
* Reported Jul 10 4:00 AM — Jul 25 4:00 AM, Leer, Weather by CustomWeather, © 2014

Note: Actual official high and low records may vary slightly from our data, if they occured in-between our weather recording intervals... More about our weather records

Advertising

Leer weather history for previous 24 hours

 ConditionsComfort  
Time TempWeatherWind HumidityBarometerVisibility
4:00 AM
Jul 25
63 °FOvercast.1 mph93%30.03 "Hg6 mi
3:00 AM64 °FLight rain. Overcast.1 mph93%30.04 "Hg5 mi
2:00 AM64 °FOvercast.1 mph89%30.04 "Hg7 mi
1:00 AM64 °FFog.1 mph93%30.05 "Hg4 mi
12:00 AM65 °FOvercast.2 mph90%30.04 "Hg6 mi
11:00 PM
Jul 24
N/APassing clouds.8 mphN/AN/A2 mi
10:00 PM68 °FOvercast.2 mph83%30.04 "Hg7 mi
9:00 PM71 °FOvercast.2 mph78%30.03 "Hg8 mi
8:00 PM74 °FOvercast.3 mph70%30.02 "Hg10 mi
7:00 PM76 °FOvercast.3 mph61%30.02 "Hg6 mi
6:00 PM76 °FOvercast.6 mph60%30.03 "Hg9 mi
4:00 PM75 °FOvercast.7 mph56%30.04 "Hg6 mi
3:00 PM79 °FPartly sunny.8 mph42%30.05 "Hg6 mi
2:00 PM79 °FPartly sunny.7 mph44%30.05 "Hg6 mi
1:00 PM78 °FScattered clouds.7 mph45%30.06 "Hg7 mi
12:00 PM76 °FSunny.7 mph51%30.06 "Hg5 mi
10:00 AM73 °FSunny.7 mph57%30.07 "Hg4 mi
9:00 AM71 °FSunny.6 mph66%30.07 "Hg2 mi
8:00 AM67 °FSunny.5 mph73%30.08 "Hg2 mi
7:00 AM64 °FFog.3 mph86%30.08 "Hg4 mi
6:00 AM57 °FOvercast.3 mph91%30.08 "Hg7 mi
5:00 AM58 °FPassing clouds.3 mph88%30.08 "Hg7 mi
Weather by CustomWeather, © 2014

See weather overviewHow to use our weather pages